STARLINK-3301 (50169 NORAD) Tracking and Keplerian Element Data
This shows tracking and keplerian element data for the satellite.
Feedback or suggestion? Click here.
Element | Value |
Catalog | 50169 |
Name | STARLINK-3301 |
Epoch Orbit | 130 |
Epoch Day | 140.58334491 |
Epoch Year | 2022 |
RAAN | 5.0656 |
Inclination | 53.2188 |
Eccentricity | 0.0001919 |
Argument of Perigee | 36.548 |
Mean Anonmoly | 89.9525 |
Mean Motion | 15.08848512 |
Decay Rate | -3.05E-05 |
L1 | 1 50169U 21125P 22140.58334491 -.00003050 00000+0 -17358-3 0 9994 |
L2 | 2 50169 53.2188 5.0656 0001919 36.5480 89.9525 15.08848512 1302 |
Live tracking and technical data element details for STARLINK-3301 (NORAD 50169). STARLINK-3301 can be tracked NOW for your location showing map with azimuth and elevation plus other details from your city location.
Track the satellite on the map from your city or location and see movement details for azimuth, elevation, latitude, longitude, range, height, and movement on the map or in text.
IsCatalogInMostPopularTable: catalog: 50169, numindb: 20
Update: records affected: 1
GetName: 50169 STARLINK-3301
Hit Count: updated at: Mon, 23 May 2022 20:02:05 GMT